Tracking 32139 objects as of 19-Nov-2025
HD Live streaming from Space Station
objects crossing your sky now

STARLINK-1371

Track STARLINK-1371 now!
10-day predictions
STARLINK-1371 is classified as:


NORAD ID: 45542
Int'l Code: 2020-025M
Perigee: 553.0 km
Apogee: 555.8 km
Inclination: 53.1 °
Period: 95.6 minutes
Semi major axis: 6925 km
RCS: Unknown
Launch date: April 22, 2020
Source: United States (US)
Launch site: AIR FORCE EASTERN TEST RANGE (AFETR)
Your satellite tracking list
Your tracking list is empty




NASA's NSSDC Master Catalog

Two Line Element Set (TLE):
1 45542U 20025M   25322.77660962  .00000250  00000-0  35736-4 0  9991
2 45542  53.0542 244.5236 0002004  82.7437 277.3780 15.06381406308373
Source of the keplerian elements: AFSPC